"Sample Date","Sample Time","Sensor Name","Sample Value","Units","Flow Rate","Sample Interval","Sample Volume","Laser Status","Number Channels","Micron Size 0","Counts/Channel 0","Micron Size 1","Counts/Channel 1","Micron Size 2","Counts/Channel 2","Micron Size 3","Counts/Channel 3","Micron Size 4","Counts/Channel 4","Micron Size 5","Counts/Channel 5","Micron Size 6","Counts/Channel 6","Micron Size 7","Counts/Channel 7","Micron Size 8","Counts/Channel 8","Micron Size 9","Counts/Channel 9","Micron Size 10","Counts/Channel 10","Micron Size 11","Counts/Channel 11","Micron Size 12","Counts/Channel 12","Micron Size 13","Counts/Channel 13","Micron Size 14","Counts/Channel 14","Micron Size 15","Counts/Channel 15","Micron Size 16","Counts/Channel 16","Micron Size 17","Counts/Channel 17","Micron Size 18","Counts/Channel 18","Micron Size 19","Counts/Channel 19","Micron Size 20","Counts/Channel 20","Micron Size 21","Counts/Channel 21","Micron Size 22","Counts/Channel 22","Micron Size 23","Counts/Channel 23","Micron Size 24","Counts/Channel 24","Micron Size 25","Counts/Channel 25","Micron Size 26","Counts/Channel 26","Micron Size 27","Counts/Channel 27","Micron Size 28","Counts/Channel 28","Micron Size 29","Counts/Channel 29","Micron Size 30","Counts/Channel 30","Micron Size 31","Counts/Channel 31"
"07/04/06","00:00:02","AMMA06",71056.000,"cc",28332.357,6.00,2833.236,1,6,0.100,32586.000,0.200,28997.000,0.300,6414.000,0.500,1862.000,1.000,1196.000,5.000,1.000
"07/04/06","00:00:08","AMMA06",70599.000,"cc",28273.961,6.00,2827.396,1,6,0.100,32627.000,0.200,28320.000,0.300,6597.000,0.500,1878.000,1.000,1174.000,5.000,3.000
"07/04/06","00:00:14","AMMA06",71397.000,"cc",28305.397,6.00,2830.540,1,6,0.100,32878.000,0.200,28933.000,0.300,6639.000,0.500,1728.000,1.000,1217.000,5.000,2.000
"07/04/06","00:00:20","AMMA06",70699.000,"cc",28373.240,6.00,2837.324,1,6,0.100,32497.000,0.200,28614.000,0.300,6626.000,0.500,1727.000,1.000,1233.000,5.000,2.000
"07/04/06","00:00:26","AMMA06",70466.000,"cc",28292.842,6.00,2829.284,1,6,0.100,32400.000,0.200,28562.000,0.300,6439.000,0.500,1771.000,1.000,1292.000,5.000,2.000
"07/04/06","00:00:32","AMMA06",70502.000,"cc",28345.260,6.00,2834.526,1,6,0.100,32426.000,0.200,28592.000,0.300,6492.000,0.500,1769.000,1.000,1221.000,5.000,2.000
"07/04/06","00:00:38","AMMA06",70757.000,"cc",28319.854,6.00,2831.986,1,6,0.100,32584.000,0.200,28623.000,0.300,6504.000,0.500,1838.000,1.000,1207.000,5.000,1.000
"07/04/06","00:00:44","AMMA06",70737.000,"cc",28305.121,6.00,2830.512,1,6,0.100,32577.000,0.200,28632.000,0.300,6452.000,0.500,1857.000,1.000,1217.000,5.000,2.000
"07/04/06","00:00:50","AMMA06",70668.000,"cc",28351.795,6.00,2835.180,1,6,0.100,32262.000,0.200,28944.000,0.300,6361.000,0.500,1814.000,1.000,1285.000,5.000,2.000
"07/04/06","00:00:56","AMMA06",70230.000,"cc",28295.922,6.00,2829.592,1,6,0.100,32029.000,0.200,28642.000,0.300,6493.000,0.500,1866.000,1.000,1197.000,5.000,3.000
"07/04/06","00:01:02","AMMA06",70167.000,"cc",28228.100,6.00,2822.810,1,6,0.100,32134.000,0.200,28741.000,0.300,6341.000,0.500,1785.000,1.000,1165.000,5.000,1.000
"07/04/06","00:01:08","AMMA06",70543.000,"cc",28340.486,6.00,2834.049,1,6,0.100,32359.000,0.200,28603.000,0.300,6527.000,0.500,1850.000,1.000,1201.000,5.000,3.000
"07/04/06","00:01:14","AMMA06",70542.000,"cc",28356.635,6.00,2835.664,1,6,0.100,32071.000,0.200,28715.000,0.300,6603.000,0.500,1925.000,1.000,1226.000,5.000,2.000
"07/04/06","00:01:20","AMMA06",70268.000,"cc",28310.057,6.00,2831.006,1,6,0.100,32287.000,0.200,28420.000,0.300,6466.000,0.500,1855.000,1.000,1236.000,5.000,4.000
"07/04/06","00:01:26","AMMA06",70647.000,"cc",28339.326,6.00,2833.933,1,6,0.100,32371.000,0.200,28841.000,0.300,6337.000,0.500,1837.000,1.000,1259.000,5.000,2.000
"07/04/06","00:01:32","AMMA06",70000.000,"cc",28323.641,6.00,2832.364,1,6,0.100,32292.000,0.200,28195.000,0.300,6475.000,0.500,1785.000,1.000,1251.000,5.000,2.000
"07/04/06","00:01:38","AMMA06",70664.000,"cc",28279.703,6.00,2827.971,1,6,0.100,32364.000,0.200,28693.000,0.300,6578.000,0.500,1824.000,1.000,1204.000,5.000,1.000
"07/04/06","00:01:44","AMMA06",70643.000,"cc",28325.273,6.00,2832.528,1,6,0.100,32764.000,0.200,28352.000,0.300,6586.000,0.500,1736.000,1.000,1202.000,5.000,3.000
"07/04/06","00:01:50","AMMA06",70359.000,"cc",28348.680,6.00,2834.868,1,6,0.100,32630.000,0.200,28199.000,0.300,6477.000,0.500,1809.000,1.000,1243.000,5.000,1.000
"07/04/06","00:01:56","AMMA06",70319.000,"cc",28309.674,6.00,2830.968,1,6,0.100,32282.000,0.200,28367.000,0.300,6535.000,0.500,1908.000,1.000,1226.000,5.000,1.000
"07/04/06","00:02:02","AMMA06",70761.000,"cc",28305.293,6.00,2830.530,1,6,0.100,32490.000,0.200,28651.000,0.300,6600.000,0.500,1830.000,1.000,1189.000,5.000,1.000
"07/04/06","00:02:08","AMMA06",70500.000,"cc",28341.160,6.00,2834.116,1,6,0.100,32531.000,0.200,28503.000,0.300,6481.000,0.500,1797.000,1.000,1187.000,5.000,1.000
"07/04/06","00:02:14","AMMA06",69546.000,"cc",28281.377,6.00,2828.138,1,6,0.100,32123.000,0.200,27968.000,0.300,6391.000,0.500,1780.000,1.000,1284.000,5.000,0
"07/04/06","00:02:20","AMMA06",69892.000,"cc",28270.660,6.00,2827.066,1,6,0.100,32117.000,0.200,28287.000,0.300,6432.000,0.500,1847.000,1.000,1207.000,5.000,2.000
"07/04/06","00:02:26","AMMA06",70523.000,"cc",28336.172,6.00,2833.617,1,6,0.100,32531.000,0.200,28512.000,0.300,6513.000,0.500,1736.000,1.000,1229.000,5.000,2.000
"07/04/06","00:02:32","AMMA06",70407.000,"cc",28331.025,6.00,2833.103,1,6,0.100,32482.000,0.200,28441.000,0.300,6397.000,0.500,1840.000,1.000,1246.000,5.000,1.000
"07/04/06","00:02:38","AMMA06",70609.000,"cc",28249.990,6.00,2824.999,1,6,0.100,32458.000,0.200,28665.000,0.300,6439.000,0.500,1762.000,1.000,1280.000,5.000,5.000
"07/04/06","00:02:44","AMMA06",70994.000,"cc",28355.902,6.00,2835.590,1,6,0.100,32773.000,0.200,28507.000,0.300,6622.000,0.500,1872.000,1.000,1220.000,5.000,0
"07/04/06","00:02:50","AMMA06",71153.000,"cc",28314.383,6.00,2831.439,1,6,0.100,33264.000,0.200,28355.000,0.300,6501.000,0.500,1825.000,1.000,1208.000,5.000,0
"07/04/06","00:02:56","AMMA06",71145.000,"cc",28398.648,6.00,2839.865,1,6,0.100,33072.000,0.200,28435.000,0.300,6456.000,0.500,1892.000,1.000,1287.000,5.000,3.000
"07/04/06","00:03:02","AMMA06",71752.000,"cc",28311.670,6.00,2831.167,1,6,0.100,33587.000,0.200,28518.000,0.300,6548.000,0.500,1894.000,1.000,1204.000,5.000,1.000
"07/04/06","00:03:08","AMMA06",72456.000,"cc",28293.709,6.00,2829.371,1,6,0.100,34178.000,0.200,28762.000,0.300,6556.000,0.500,1770.000,1.000,1189.000,5.000,1.000
"07/04/06","00:03:14","AMMA06",72441.000,"cc",28303.838,6.00,2830.384,1,6,0.100,34388.000,0.200,28573.000,0.300,6473.000,0.500,1768.000,1.000,1238.000,5.000,1.000
"07/04/06","00:03:20","AMMA06",71665.000,"cc",28309.813,6.00,2830.981,1,6,0.100,33859.000,0.200,28431.000,0.300,6465.000,0.500,1722.000,1.000,1187.000,5.000,1.000
"07/04/06","00:03:26","AMMA06",71737.000,"cc",28263.465,6.00,2826.347,1,6,0.100,33818.000,0.200,28514.000,0.300,6354.000,0.500,1843.000,1.000,1207.000,5.000,1.000
"07/04/06","00:03:32","AMMA06",71831.000,"cc",28312.781,6.00,2831.278,1,6,0.100,33902.000,0.200,28532.000,0.300,6386.000,0.500,1866.000,1.000,1145.000,5.000,0
"07/04/06","00:03:38","AMMA06",71833.000,"cc",28327.373,6.00,2832.738,1,6,0.100,34147.000,0.200,28409.000,0.300,6235.000,0.500,1831.000,1.000,1211.000,5.000,0
"07/04/06","00:03:44","AMMA06",71231.000,"cc",28298.568,6.00,2829.857,1,6,0.100,33934.000,0.200,28111.000,0.300,6157.000,0.500,1810.000,1.000,1218.000,5.000,1.000
"07/04/06","00:03:50","AMMA06",71552.000,"cc",28354.877,6.00,2835.488,1,6,0.100,33760.000,0.200,28567.000,0.300,6339.000,0.500,1767.000,1.000,1119.000,5.000,0
"07/04/06","00:03:56","AMMA06",71984.000,"cc",28282.477,6.00,2828.248,1,6,0.100,34471.000,0.200,28511.000,0.300,6077.000,0.500,1763.000,1.000,1159.000,5.000,3.000
"07/04/06","00:04:02","AMMA06",72813.000,"cc",28288.131,6.00,2828.813,1,6,0.100,34715.000,0.200,28699.000,0.300,6424.000,0.500,1780.000,1.000,1195.000,5.000,0
"07/04/06","00:04:08","AMMA06",72877.000,"cc",28321.592,6.00,2832.159,1,6,0.100,34960.000,0.200,28498.000,0.300,6421.000,0.500,1813.000,1.000,1185.000,5.000,0
"07/04/06","00:04:14","AMMA06",73017.000,"cc",28325.631,6.00,2832.563,1,6,0.100,34678.000,0.200,28884.000,0.300,6473.000,0.500,1761.000,1.000,1221.000,5.000,0
"07/04/06","00:04:20","AMMA06",73005.000,"cc",28285.836,6.00,2828.584,1,6,0.100,35241.000,0.200,28549.000,0.300,6227.000,0.500,1832.000,1.000,1155.000,5.000,1.000
"07/04/06","00:04:26","AMMA06",73285.000,"cc",28381.531,6.00,2838.153,1,6,0.100,35479.000,0.200,28709.000,0.300,6097.000,0.500,1824.000,1.000,1175.000,5.000,1.000
"07/04/06","00:04:32","AMMA06",73654.000,"cc",28325.621,6.00,2832.562,1,6,0.100,35521.000,0.200,28946.000,0.300,6342.000,0.500,1719.000,1.000,1125.000,5.000,1.000
"07/04/06","00:04:38","AMMA06",73730.000,"cc",28324.090,6.00,2832.409,1,6,0.100,35770.000,0.200,28807.000,0.300,6154.000,0.500,1808.000,1.000,1191.000,5.000,0
"07/04/06","00:04:44","AMMA06",73338.000,"cc",28247.881,6.00,2824.788,1,6,0.100,35567.000,0.200,28477.000,0.300,6235.000,0.500,1923.000,1.000,1136.000,5.000,0
"07/04/06","00:04:50","AMMA06",74407.000,"cc",28312.856,6.00,2831.286,1,6,0.100,36209.000,0.200,28967.000,0.300,6182.000,0.500,1873.000,1.000,1175.000,5.000,1.000
"07/04/06","00:04:56","AMMA06",73357.000,"cc",28332.338,6.00,2833.234,1,6,0.100,35771.000,0.200,28426.000,0.300,6173.000,0.500,1857.000,1.000,1129.000,5.000,1.000
"07/04/06","00:05:02","AMMA06",73286.000,"cc",28336.668,6.00,2833.667,1,6,0.100,35446.000,0.200,28762.000,0.300,6072.000,0.500,1856.000,1.000,1149.000,5.000,1.000
"07/04/06","00:05:08","AMMA06",73022.000,"cc",28342.486,6.00,2834.249,1,6,0.100,35776.000,0.200,28233.000,0.300,5994.000,0.500,1843.000,1.000,1176.000,5.000,0
"07/04/06","00:05:14","AMMA06",73537.000,"cc",28245.592,6.00,2824.559,1,6,0.100,35895.000,0.200,28618.000,0.300,6120.000,0.500,1794.000,1.000,1109.000,5.000,1.000
"07/04/06","00:05:20","AMMA06",73729.000,"cc",28340.723,6.00,2834.073,1,6,0.100,36005.000,0.200,28702.000,0.300,6056.000,0.500,1848.000,1.000,1118.000,5.000,0
"07/04/06","00:05:26","AMMA06",74464.000,"cc",28272.520,6.00,2827.252,1,6,0.100,36750.000,0.200,28581.000,0.300,6138.000,0.500,1812.000,1.000,1180.000,5.000,3.000
"07/04/06","00:05:32","AMMA06",74229.000,"cc",28362.635,6.00,2836.264,1,6,0.100,36506.000,0.200,28740.000,0.300,6021.000,0.500,1764.000,1.000,1198.000,5.000,0
"07/04/06","00:05:38","AMMA06",73387.000,"cc",28320.037,6.00,2832.004,1,6,0.100,36108.000,0.200,28471.000,0.300,5909.000,0.500,1788.000,1.000,1109.000,5.000,2.000
"07/04/06","00:05:44","AMMA06",74261.000,"cc",28309.580,6.00,2830.958,1,6,0.100,36491.000,0.200,28725.000,0.300,6082.000,0.500,1791.000,1.000,1172.000,5.000,0
"07/04/06","00:05:50","AMMA06",74542.000,"cc",28283.037,6.00,2828.304,1,6,0.100,36997.000,0.200,28649.000,0.300,5999.000,0.500,1757.000,1.000,1139.000,5.000,1.000
"07/04/06","00:05:56","AMMA06",74633.000,"cc",28284.703,6.00,2828.471,1,6,0.100,37217.000,0.200,28392.000,0.300,6094.000,0.500,1782.000,1.000,1147.000,5.000,1.000
"07/04/06","00:06:02","AMMA06",74477.000,"cc",28352.682,6.00,2835.268,1,6,0.100,37050.000,0.200,28518.000,0.300,6022.000,0.500,1777.000,1.000,1109.000,5.000,1.000
"07/04/06","00:06:08","AMMA06",74846.000,"cc",28346.275,6.00,2834.628,1,6,0.100,37188.000,0.200,28650.000,0.300,6002.000,0.500,1880.000,1.000,1125.000,5.000,1.000
"07/04/06","00:06:14","AMMA06",75285.000,"cc",28294.486,6.00,2829.449,1,6,0.100,37216.000,0.200,29072.000,0.300,6053.000,0.500,1781.000,1.000,1161.000,5.000,2.000
"07/04/06","00:06:20","AMMA06",76595.000,"cc",28282.059,6.00,2828.206,1,6,0.100,38064.000,0.200,29200.000,0.300,6310.000,0.500,1830.000,1.000,1191.000,5.000,0
"07/04/06","00:06:26","AMMA06",75717.000,"cc",28340.252,6.00,2834.025,1,6,0.100,37681.000,0.200,29086.000,0.300,6076.000,0.500,1736.000,1.000,1137.000,5.000,1.000
"07/04/06","00:06:32","AMMA06",76001.000,"cc",28427.113,6.00,2842.711,1,6,0.100,37875.000,0.200,28968.000,0.300,6158.000,0.500,1833.000,1.000,1167.000,5.000,0
"07/04/06","00:06:38","AMMA06",75773.000,"cc",28308.471,6.00,2830.847,1,6,0.100,37658.000,0.200,29034.000,0.300,6085.000,0.500,1772.000,1.000,1224.000,5.000,0
"07/04/06","00:06:44","AMMA06",76645.000,"cc",28349.486,6.00,2834.949,1,6,0.100,37840.000,0.200,29415.000,0.300,6358.000,0.500,1874.000,1.000,1158.000,5.000,0
"07/04/06","00:06:50","AMMA06",76275.000,"cc",28292.604,6.00,2829.261,1,6,0.100,37989.000,0.200,29093.000,0.300,6229.000,0.500,1825.000,1.000,1138.000,5.000,1.000
"07/04/06","00:06:56","AMMA06",75594.000,"cc",28271.297,6.00,2827.130,1,6,0.100,37380.000,0.200,28898.000,0.300,6449.000,0.500,1755.000,1.000,1112.000,5.000,0
"07/04/06","00:07:02","AMMA06",76748.000,"cc",28325.219,6.00,2832.522,1,6,0.100,37844.000,0.200,29652.000,0.300,6270.000,0.500,1811.000,1.000,1171.000,5.000,0
"07/04/06","00:07:08","AMMA06",76404.000,"cc",28316.775,6.00,2831.678,1,6,0.100,37990.000,0.200,29277.000,0.300,6190.000,0.500,1798.000,1.000,1149.000,5.000,0
"07/04/06","00:07:14","AMMA06",76817.000,"cc",28313.658,6.00,2831.366,1,6,0.100,38053.000,0.200,29513.000,0.300,6284.000,0.500,1786.000,1.000,1181.000,5.000,0
"07/04/06","00:07:20","AMMA06",76998.000,"cc",28351.441,6.00,2835.144,1,6,0.100,38300.000,0.200,29417.000,0.300,6358.000,0.500,1800.000,1.000,1122.000,5.000,1.000
"07/04/06","00:07:26","AMMA06",76728.000,"cc",28303.363,6.00,2830.336,1,6,0.100,37976.000,0.200,29520.000,0.300,6334.000,0.500,1736.000,1.000,1160.000,5.000,2.000
"07/04/06","00:07:32","AMMA06",77323.000,"cc",28353.250,6.00,2835.325,1,6,0.100,38177.000,0.200,29828.000,0.300,6461.000,0.500,1824.000,1.000,1031.000,5.000,2.000
"07/04/06","00:07:38","AMMA06",76717.000,"cc",28353.389,6.00,2835.339,1,6,0.100,38023.000,0.200,29424.000,0.300,6362.000,0.500,1764.000,1.000,1143.000,5.000,1.000
"07/04/06","00:07:44","AMMA06",77381.000,"cc",28259.926,6.00,2825.993,1,6,0.100,38395.000,0.200,29644.000,0.300,6480.000,0.500,1697.000,1.000,1165.000,5.000,0
"07/04/06","00:07:50","AMMA06",77367.000,"cc",28319.273,6.00,2831.928,1,6,0.100,38208.000,0.200,29813.000,0.300,6436.000,0.500,1747.000,1.000,1162.000,5.000,1.000
"07/04/06","00:07:56","AMMA06",74637.000,"cc",28319.090,6.00,2831.909,1,6,0.100,35843.000,0.200,29388.000,0.300,6537.000,0.500,1703.000,1.000,1166.000,5.000,0
"07/04/06","00:08:02","AMMA06",74217.000,"cc",28254.725,6.00,2825.473,1,6,0.100,35023.000,0.200,29864.000,0.300,6449.000,0.500,1725.000,1.000,1156.000,5.000,0
"07/04/06","00:08:08","AMMA06",74892.000,"cc",28368.275,6.00,2836.828,1,6,0.100,35647.000,0.200,29745.000,0.300,6550.000,0.500,1770.000,1.000,1177.000,5.000,3.000
"07/04/06","00:08:14","AMMA06",74388.000,"cc",28339.844,6.00,2833.985,1,6,0.100,35357.000,0.200,29412.000,0.300,6640.000,0.500,1776.000,1.000,1203.000,5.000,0
"07/04/06","00:08:20","AMMA06",74390.000,"cc",28347.152,6.00,2834.715,1,6,0.100,35292.000,0.200,29651.000,0.300,6537.000,0.500,1704.000,1.000,1205.000,5.000,1.000
"07/04/06","00:08:26","AMMA06",74254.000,"cc",28356.098,6.00,2835.610,1,6,0.100,35226.000,0.200,29554.000,0.300,6563.000,0.500,1735.000,1.000,1176.000,5.000,0
"07/04/06","00:08:32","AMMA06",74439.000,"cc",28298.990,6.00,2829.899,1,6,0.100,35472.000,0.200,29519.000,0.300,6580.000,0.500,1697.000,1.000,1169.000,5.000,2.000
"07/04/06","00:08:38","AMMA06",74661.000,"cc",28216.647,6.00,2821.665,1,6,0.100,35196.000,0.200,29993.000,0.300,6631.000,0.500,1731.000,1.000,1110.000,5.000,0
"07/04/06","00:08:44","AMMA06",74683.000,"cc",28294.135,6.00,2829.414,1,6,0.100,35278.000,0.200,29699.000,0.300,6787.000,0.500,1731.000,1.000,1188.000,5.000,0
"07/04/06","00:08:50","AMMA06",74389.000,"cc",28306.375,6.00,2830.638,1,6,0.100,35383.000,0.200,29450.000,0.300,6652.000,0.500,1722.000,1.000,1180.000,5.000,2.000
"07/04/06","00:08:56","AMMA06",75042.000,"cc",28344.115,6.00,2834.412,1,6,0.100,35744.000,0.200,29545.000,0.300,6818.000,0.500,1735.000,1.000,1200.000,5.000,0
"07/04/06","00:09:02","AMMA06",75130.000,"cc",28341.461,6.00,2834.146,1,6,0.100,35517.000,0.200,29892.000,0.300,6781.000,0.500,1800.000,1.000,1138.000,5.000,2.000
"07/04/06","00:09:08","AMMA06",75060.000,"cc",28300.508,6.00,2830.051,1,6,0.100,35484.000,0.200,29961.000,0.300,6772.000,0.500,1667.000,1.000,1175.000,5.000,1.000
"07/04/06","00:09:14","AMMA06",75083.000,"cc",28354.549,6.00,2835.455,1,6,0.100,35253.000,0.200,30214.000,0.300,6795.000,0.500,1674.000,1.000,1146.000,5.000,1.000
"07/04/06","00:09:20","AMMA06",75107.000,"cc",28304.457,6.00,2830.446,1,6,0.100,35224.000,0.200,30018.000,0.300,6926.000,0.500,1786.000,1.000,1152.000,5.000,1.000
"07/04/06","00:09:26","AMMA06",74555.000,"cc",28282.117,6.00,2828.212,1,6,0.100,35180.000,0.200,29477.000,0.300,6916.000,0.500,1764.000,1.000,1218.000,5.000,0
"07/04/06","00:09:32","AMMA06",75166.000,"cc",28315.643,6.00,2831.565,1,6,0.100,35316.000,0.200,29966.000,0.300,6946.000,0.500,1741.000,1.000,1197.000,5.000,0
"07/04/06","00:09:38","AMMA06",74794.000,"cc",28350.795,6.00,2835.080,1,6,0.100,35042.000,0.200,30092.000,0.300,6700.000,0.500,1741.000,1.000,1219.000,5.000,0
"07/04/06","00:09:44","AMMA06",74412.000,"cc",28364.568,6.00,2836.457,1,6,0.100,34502.000,0.200,30104.000,0.300,6866.000,0.500,1721.000,1.000,1219.000,5.000,0
"07/04/06","00:09:50","AMMA06",73782.000,"cc",28289.195,6.00,2828.920,1,6,0.100,34154.000,0.200,29758.000,0.300,6888.000,0.500,1758.000,1.000,1222.000,5.000,2.000
"07/04/06","00:09:56","AMMA06",74505.000,"cc",28264.428,6.00,2826.443,1,6,0.100,34309.000,0.200,30296.000,0.300,6964.000,0.500,1738.000,1.000,1198.000,5.000,0
"07/04/06","00:10:02","AMMA06",74327.000,"cc",28305.707,6.00,2830.571,1,6,0.100,34351.000,0.200,30226.000,0.300,6903.000,0.500,1676.000,1.000,1170.000,5.000,1.000
"07/04/06","00:10:08","AMMA06",73979.000,"cc",28361.762,6.00,2836.176,1,6,0.100,33966.000,0.200,30097.000,0.300,6983.000,0.500,1713.000,1.000,1217.000,5.000,3.000
"07/04/06","00:10:14","AMMA06",74015.000,"cc",28271.826,6.00,2827.183,1,6,0.100,34052.000,0.200,30098.000,0.300,6958.000,0.500,1724.000,1.000,1181.000,5.000,2.000
"07/04/06","00:10:20","AMMA06",74227.000,"cc",28381.756,6.00,2838.176,1,6,0.100,34212.000,0.200,30192.000,0.300,6891.000,0.500,1753.000,1.000,1177.000,5.000,2.000
"07/04/06","00:10:26","AMMA06",73934.000,"cc",28369.732,6.00,2836.973,1,6,0.100,33838.000,0.200,30234.000,0.300,6998.000,0.500,1690.000,1.000,1174.000,5.000,0
"07/04/06","00:10:32","AMMA06",73674.000,"cc",28249.658,6.00,2824.966,1,6,0.100,33809.000,0.200,30083.000,0.300,6771.000,0.500,1715.000,1.000,1295.000,5.000,1.000
"07/04/06","00:10:38","AMMA06",73710.000,"cc",28296.619,6.00,2829.662,1,6,0.100,33720.000,0.200,29960.000,0.300,7077.000,0.500,1721.000,1.000,1231.000,5.000,1.000
"07/04/06","00:10:44","AMMA06",73906.000,"cc",28308.512,6.00,2830.851,1,6,0.100,33700.000,0.200,30323.000,0.300,6978.000,0.500,1687.000,1.000,1215.000,5.000,3.000
"07/04/06","00:10:50","AMMA06",73555.000,"cc",28297.377,6.00,2829.738,1,6,0.100,33684.000,0.200,29975.000,0.300,7046.000,0.500,1669.000,1.000,1181.000,5.000,0
"07/04/06","00:10:56","AMMA06",73709.000,"cc",28328.873,6.00,2832.888,1,6,0.100,33712.000,0.200,30132.000,0.300,7021.000,0.500,1715.000,1.000,1128.000,5.000,1.000
"07/04/06","00:11:02","AMMA06",73890.000,"cc",28314.658,6.00,2831.466,1,6,0.100,33503.000,0.200,30315.000,0.300,7091.000,0.500,1764.000,1.000,1217.000,5.000,0
"07/04/06","00:11:08","AMMA06",73491.000,"cc",28310.582,6.00,2831.058,1,6,0.100,33795.000,0.200,29946.000,0.300,6918.000,0.500,1689.000,1.000,1143.000,5.000,0
"07/04/06","00:11:14","AMMA06",74155.000,"cc",28321.373,6.00,2832.138,1,6,0.100,33914.000,0.200,30381.000,0.300,6941.000,0.500,1734.000,1.000,1185.000,5.000,0
"07/04/06","00:11:20","AMMA06",73835.000,"cc",28343.951,6.00,2834.395,1,6,0.100,33878.000,0.200,30304.000,0.300,6852.000,0.500,1679.000,1.000,1121.000,5.000,1.000
"07/04/06","00:11:26","AMMA06",73736.000,"cc",28383.238,6.00,2838.324,1,6,0.100,33944.000,0.200,30112.000,0.300,6789.000,0.500,1768.000,1.000,1122.000,5.000,1.000
"07/04/06","00:11:32","AMMA06",73998.000,"cc",28349.346,6.00,2834.935,1,6,0.100,34198.000,0.200,30028.000,0.300,6872.000,0.500,1708.000,1.000,1191.000,5.000,1.000
"07/04/06","00:11:38","AMMA06",73695.000,"cc",28259.930,6.00,2825.993,1,6,0.100,34226.000,0.200,29809.000,0.300,6811.000,0.500,1749.000,1.000,1099.000,5.000,1.000
"07/04/06","00:11:44","AMMA06",74013.000,"cc",28345.436,6.00,2834.544,1,6,0.100,34515.000,0.200,29909.000,0.300,6727.000,0.500,1698.000,1.000,1163.000,5.000,1.000
"07/04/06","00:11:50","AMMA06",74105.000,"cc",28270.516,6.00,2827.052,1,6,0.100,34570.000,0.200,30093.000,0.300,6552.000,0.500,1748.000,1.000,1141.000,5.000,1.000
"07/04/06","00:11:56","AMMA06",74571.000,"cc",28303.631,6.00,2830.363,1,6,0.100,34931.000,0.200,30049.000,0.300,6697.000,0.500,1781.000,1.000,1111.000,5.000,2.000
"07/04/06","00:12:02","AMMA06",73840.000,"cc",28391.453,6.00,2839.146,1,6,0.100,34598.000,0.200,29681.000,0.300,6592.000,0.500,1792.000,1.000,1176.000,5.000,1.000
"07/04/06","00:12:08","AMMA06",73873.000,"cc",28316.326,6.00,2831.633,1,6,0.100,34730.000,0.200,29818.000,0.300,6526.000,0.500,1720.000,1.000,1078.000,5.000,1.000
"07/04/06","00:12:14","AMMA06",73911.000,"cc",28232.361,6.00,2823.236,1,6,0.100,34570.000,0.200,29988.000,0.300,6550.000,0.500,1715.000,1.000,1088.000,5.000,0
"07/04/06","00:12:20","AMMA06",74548.000,"cc",28292.891,6.00,2829.289,1,6,0.100,34711.000,0.200,30323.000,0.300,6652.000,0.500,1733.000,1.000,1126.000,5.000,3.000
"07/04/06","00:12:26","AMMA06",73679.000,"cc",28378.135,6.00,2837.814,1,6,0.100,34679.000,0.200,29592.000,0.300,6522.000,0.500,1783.000,1.000,1103.000,5.000,0
"07/04/06","00:12:32","AMMA06",73582.000,"cc",28271.400,6.00,2827.140,1,6,0.100,34435.000,0.200,29764.000,0.300,6495.000,0.500,1740.000,1.000,1147.000,5.000,1.000
"07/04/06","00:12:38","AMMA06",73474.000,"cc",28352.918,6.00,2835.292,1,6,0.100,34336.000,0.200,29986.000,0.300,6422.000,0.500,1641.000,1.000,1088.000,5.000,1.000
"07/04/06","00:12:44","AMMA06",73930.000,"cc",28283.404,6.00,2828.341,1,6,0.100,34649.000,0.200,30198.000,0.300,6329.000,0.500,1683.000,1.000,1071.000,5.000,0
"07/04/06","00:12:50","AMMA06",73347.000,"cc",28344.168,6.00,2834.417,1,6,0.100,34091.000,0.200,29896.000,0.300,6424.000,0.500,1835.000,1.000,1101.000,5.000,0
"07/04/06","00:12:56","AMMA06",73910.000,"cc",28316.537,6.00,2831.654,1,6,0.100,34578.000,0.200,29867.000,0.300,6485.000,0.500,1792.000,1.000,1188.000,5.000,0
"07/04/06","00:13:02","AMMA06",73493.000,"cc",28335.947,6.00,2833.595,1,6,0.100,34259.000,0.200,30070.000,0.300,6340.000,0.500,1735.000,1.000,1088.000,5.000,1.000
"07/04/06","00:13:08","AMMA06",73229.000,"cc",28363.861,6.00,2836.386,1,6,0.100,34279.000,0.200,29768.000,0.300,6298.000,0.500,1793.000,1.000,1090.000,5.000,1.000
"07/04/06","00:13:14","AMMA06",72813.000,"cc",28270.596,6.00,2827.060,1,6,0.100,34279.000,0.200,29485.000,0.300,6162.000,0.500,1772.000,1.000,1114.000,5.000,1.000
"07/04/06","00:13:20","AMMA06",72943.000,"cc",28319.785,6.00,2831.979,1,6,0.100,33912.000,0.200,29802.000,0.300,6383.000,0.500,1730.000,1.000,1116.000,5.000,0
"07/04/06","00:13:26","AMMA06",73284.000,"cc",28303.481,6.00,2830.348,1,6,0.100,34469.000,0.200,29655.000,0.300,6374.000,0.500,1745.000,1.000,1039.000,5.000,2.000
"07/04/06","00:13:32","AMMA06",73214.000,"cc",28339.746,6.00,2833.975,1,6,0.100,34170.000,0.200,29927.000,0.300,6252.000,0.500,1725.000,1.000,1140.000,5.000,0
"07/04/06","00:13:38","AMMA06",73574.000,"cc",28260.453,6.00,2826.045,1,6,0.100,34558.000,0.200,29887.000,0.300,6353.000,0.500,1707.000,1.000,1069.000,5.000,0
"07/04/06","00:13:44","AMMA06",73492.000,"cc",28350.711,6.00,2835.071,1,6,0.100,34661.000,0.200,29705.000,0.300,6286.000,0.500,1755.000,1.000,1085.000,5.000,0
"07/04/06","00:13:50","AMMA06",73390.000,"cc",28279.938,6.00,2827.994,1,6,0.100,34153.000,0.200,29978.000,0.300,6375.000,0.500,1805.000,1.000,1076.000,5.000,3.000